SL-16 DEB, 22370

Orbit data source: Space-Track

SL-16 DEB, 22370 is space debris in LEO originally from a launch on Fri, 25 Dec 1992 UTC launched from the Tyuratam Missile And Space Complex (TTMTR). Debris objects in space refer to the collection of defunct objects orbiting the Earth. Examples of debris include non-operational satellites, rocket bodies, and fragments generated from explosions, collisions, or faulty payload assembly.

Loading next visibility...
Identifier
22370, 1992-093BK
Orbit
LEO
Country
Flag of CISCIS
Related business
Manufacturer
Unknown
Mission
Spacecraft
Bus & Motor
Unknown
Mass
Unknown
Launch date (UTC)
1992-12-25 (33 years ago)
Launch vehicle
Unknown
Launch site
Tyuratam Missile And Space Complex (TTMTR)
Object type
Payload
Rocket body
Debris
Shape & HBR
Unknown shape, 0.1 m
Radar Cross Section
Small (<0.1 m²)

Expand to show TLE details & history
Last TLE update: 15 hours ago

TLE from 15 hours ago
0 SL-16 DEB
1 22370U 92093BK  25303.20997965  .00000414  00000-0  26166-3 0  9990
2 22370  70.9763 350.4201 0109055 197.7251 222.0997 14.06940310680121
Epoch: 2025-10-30T05:02Z
TLE epoch observation values (Epoch: 2025-10-30T05:02:22.241Z)
Latitude
54.23655°
Longitude
-95.50634°
Altitude
937.287 km
Speed
7.358 km/s
True Right ascension
01h 15m 26s
True Declination
54° 04' 38"
Sunlit
Object was in full shadow at epoch
Visualization orbit readout
Latitude
Unknown
Longitude
Unknown
Altitude
Unknown
Speed
Unknown
Apparent Right ascension
Unknown
Apparent Declination
Unknown
Sunlit
N/A
Visualization observer readout
Local Sidereal Time
15:24:28
Azimuth
Unknown
Elevation
Unknown
Doppler factor
Unknown
Orbital elements
Apogee altitude
946.816 km
Perigee altitude
788.775 km
Semi-major axis
7,245.933 km
Eccentricity
0.01091
Inclination
70.9763°
RAAN
350.4201°
Arg. of periapsis
197.7251°
True anomaly
221.27031°
Mean anomaly
222.0997°
Eccentric anomaly
221.68417°
Mean motion
3.51886 °/min
Orbital period
102.31 mins
BSTAR
0.00026166
Loading maneuver chart data...
Computing Atmospheric mass density...
Loading historical data...
Loading historical data...
Loading historical data...
Loading historical data...
Loading historical data...
Loading historical data...
Loading historical data...

Documentation

Showing up to 5 results
|